Temperature
16 14 14 15 15 13 14 16 16 17 17 17 16 15 13 11 9 9 8 7 8 7 7 6 6 5 5 5 4 4 4 4 3 3 3 3 3 2 2 2 1 1 0 -0
14 12 12 13 14 14 14 15 15 16 16 16 13 12 11 10 9 8 7 7 7 7 6 6 5 5 5 4 4 4 3 3 3 3 2 2 2 2 1 0 -0 -1 -1 -1
15 12 12 14 15 14 14 14 14 14 15 13 11 10 10 9 8 8 7 7 6 6 5 5 5 4 4 4 3 3 3 3 2 2 1 1 1 0 -0 -1 -1 -2 -2 -2
13 12 12 16 13 13 13 13 13 13 12 11 10 9 8 8 7 7 6 6 6 5 5 4 4 4 3 3 3 2 2 2 1 1 1 0 -0 -1 -1 -2 -2 -3 -3 -3
12 13 14 15 12 11 12 13 12 11 10 9 7 7 7 6 6 6 6 5 5 5 4 4 3 3 3 2 2 2 1 1 0 -0 -1 -1 -1 -2 -2 -3 -3 -3 -4 -4
11 11 12 15 11 10 11 12 11 10 9 8 7 10 9 6 6 5 5 5 4 4 4 3 3 2 2 2 1 1 1 0 -0 -1 -1 -2 -2 -2 -3 -3 -4 -4 -5 -5
11 11 13 13 9 10 12 13 9 8 8 7 8 9 7 6 5 5 5 4 4 3 3 3 2 2 1 1 1 0 -0 -0 -1 -1 -2 -2 -3 -3 -4 -4 -5 -5 -6 -6
11 11 12 10 9 11 12 8 8 8 7 7 7 6 6 5 5 4 4 4 3 3 3 2 2 1 1 0 0 -0 -1 -1 -1 -2 -2 -3 -3 -4 -4 -5 -6 -6 -6 -6
12 12 10 8 9 9 8 8 7 7 7 7 6 5 5 4 4 4 4 3 3 2 2 2 1 1 0 -0 -1 -1 -1 -2 -2 -2 -3 -4 -4 -5 -5 -6 -6 -6 -7 -7
9 9 8 7 7 8 8 7 7 7 7 6 5 5 4 4 4 3 3 3 2 2 1 1 1 0 -0 -1 -1 -2 -2 -2 -3 -3 -4 -4 -5 -6 -6 -6 -7 -7 -7 -7
9 8 7 6 6 7 7 7 7 6 6 5 5 4 4 3 3 3 3 2 2 1 1 0 -0 -0 -1 -1 -2 -2 -3 -3 -3 -4 -5 -5 -6 -6 -7 -7 -7 -7 -7 -7
10 9 8 7 6 6 6 6 6 5 4 4 4 3 3 3 3 2 2 2 1 1 0 -0 -1 -1 -1 -2 -2 -3 -3 -4 -4 -5 -5 -6 -6 -7 -7 -7 -7 -7 -7 -7
8 7 6 6 6 6 5 5 4 4 4 4 3 3 3 2 2 2 2 1 0 -0 -0 -1 -1 -1 -2 -2 -3 -3 -4 -4 -5 -5 -6 -6 -7 -7 -7 -7 -7 -7 -7 -7
6 6 5 5 5 5 4 4 4 3 3 3 3 2 2 2 2 1 1 0 -0 -1 -1 -1 -2 -2 -2 -3 -3 -4 -4 -5 -5 -6 -7 -7 -7 -8 -8 -8 -8 -8 -7 -7
5 5 5 4 4 4 3 3 3 3 3 2 2 2 1 1 1 1 0 -0 -1 -1 -1 -2 -2 -2 -3 -3 -4 -4 -5 -5 -6 -7 -7 -7 -8 -8 -8 -8 -8 -8 -8 -8
4 4 4 4 3 3 3 3 2 2 2 2 2 1 1 0 0 0 -0 -1 -2 -2 -2 -2 -3 -3 -3 -4 -4 -5 -5 -6 -6 -7 -7 -8 -8 -8 -8 -8 -8 -8 -8 -8
3 2 2 2 2 2 2 2 2 2 1 1 1 0 0 -0 -0 -1 -1 -2 -2 -2 -2 -3 -3 -3 -4 -4 -5 -6 -6 -6 -7 -7 -8 -8 -8 -8 -9 -9 -9 -9 -9 -9
4 4 3 3 2 2 2 2 1 1 1 0 0 -0 -1 -1 -1 -2 -2 -2 -2 -2 -3 -3 -4 -4 -4 -5 -5 -6 -7 -7 -8 -8 -8 -8 -8 -9 -9 -9 -9 -9 -9 -9
2 2 2 2 2 2 1 1 1 0 0 -0 -1 -1 -1 -1 -2 -2 -3 -3 -3 -4 -3 -4 -4 -5 -5 -5 -6 -7 -7 -8 -8 -8 -8 -9 -9 -9 -9 -9 -9 -9 -9 -9
2 1 1 1 1 1 1 0 0 -0 -0 -1 -1 -1 -2 -2 -2 -3 -3 -4 -4 -4 -5 -5 -5 -6 -6 -6 -7 -7 -8 -8 -8 -9 -9 -9 -9 -10 -10 -10 -10 -10 -10 -9
1 1 1 1 0 0 0 -0 -1 -1 -1 -1 -2 -2 -3 -3 -3 -4 -4 -5 -4 -5 -5 -6 -6 -6 -7 -7 -8 -8 -8 -8 -9 -9 -9 -10 -10 -10 -10 -10 -10 -10 -10 -10
0 0 0 0 -0 -0 -1 -1 -1 -2 -2 -2 -2 -3 -3 -3 -4 -4 -5 -5 -5 -6 -6 -7 -7 -7 -7 -8 -8 -9 -9 -9 -9 -10 -10 -10 -10 -10 -11 -10 -10 -10 -10 -10
-0 -0 -0 -1 -1 -1 -1 -1 -2 -2 -2 -3 -3 -3 -4 -4 -5 -5 -6 -6 -6 -7 -7 -7 -7 -8 -8 -9 -9 -9 -9 -10 -10 -10 -11 -11 -11 -11 -11 -11 -11 -10 -10 -10
-1 -1 -1 -1 -2 -2 -2 -2 -2 -2 -3 -3 -3 -4 -4 -5 -5 -6 -6 -6 -7 -7 -7 -7 -8 -8 -9 -9 -10 -10 -10 -11 -11 -11 -11 -11 -11 -11 -11 -11 -11 -11 -11 -10
-1 -1 -2 -2 -2 -2 -2 -3 -3 -3 -3 -4 -4 -4 -5 -6 -6 -6 -7 -7 -7 -8 -8 -8 -9 -9 -9 -10 -10 -11 -11 -11 -11 -11 -11 -11 -11 -11 -11 -11 -11 -11 -11 -10
-2 -2 -2 -2 -3 -3 -3 -3 -4 -4 -4 -5 -5 -5 -6 -6 -7 -7 -7 -8 -8 -8 -9 -9 -9 -10 -10 -11 -11 -11 -11 -12 -12 -12 -12 -12 -12 -12 -11 -11 -11 -11 -11 -10
-2 -2 -3 -3 -3 -3 -4 -4 -5 -5 -5 -6 -6 -6 -7 -7 -8 -8 -8 -9 -9 -9 -10 -10 -10 -11 -11 -11 -12 -12 -12 -12 -12 -12 -12 -12 -12 -12 -12 -11 -11 -11 -11 -10
Wind_Speed
5 1 4 8 10 13 15 16 14 16 18 15 11 11 10 10 11 9 8 6 3 1 1 2 3 4 6 7 8 9 10 11 12 13 13 14 15 16 16 17 17 18 18 19
4 2 5 7 13 16 18 19 21 22 21 11 4 6 8 10 11 10 7 5 2 1 2 3 4 6 7 8 9 10 11 12 13 13 14 15 16 17 17 18 18 18 18 19
6 2 3 11 14 17 13 13 13 17 13 4 6 8 8 9 10 8 6 3 2 2 3 4 5 7 9 10 10 11 12 13 13 14 15 16 17 18 18 19 19 19 19 19
3 3 10 6 2 6 11 13 13 11 5 7 7 6 4 6 8 7 5 3 2 3 4 5 6 7 9 10 11 12 13 14 14 15 16 17 18 18 19 18 18 18 19 20
5 7 11 7 4 6 8 9 9 11 9 8 8 6 4 5 5 4 3 2 2 3 5 6 7 8 10 11 12 13 14 15 15 16 17 18 19 20 19 19 19 19 19 20
6 6 9 4 4 4 3 7 6 10 11 11 10 7 6 7 5 4 2 2 3 4 6 7 8 9 11 13 14 15 15 16 16 17 17 18 19 20 19 18 19 19 19 19
12 11 10 1 6 7 6 3 7 10 12 12 8 2 6 7 4 3 2 3 4 5 7 8 9 10 12 14 15 15 16 16 17 17 18 18 19 18 18 18 18 18 19 18
9 10 10 7 9 8 3 4 8 10 10 9 6 5 5 4 3 2 3 4 5 7 9 9 10 11 13 15 16 16 16 17 18 18 17 16 18 18 18 18 18 18 18 18
10 7 1 6 5 1 4 6 7 8 7 8 7 5 5 3 3 3 4 5 6 8 10 11 11 12 15 16 16 16 17 18 18 18 17 16 17 18 17 16 15 15 15 16
6 6 4 5 4 4 5 6 6 7 8 7 6 6 4 3 3 4 5 7 8 9 12 13 14 14 15 16 16 16 18 18 17 17 17 17 14 14 14 15 15 15 16 16
7 4 3 6 7 7 6 7 8 7 6 7 6 5 4 4 5 6 7 8 9 10 13 15 15 15 16 16 16 17 18 17 17 16 17 16 15 14 16 15 16 17 16 16
8 7 7 6 8 10 10 9 9 8 7 5 5 4 4 5 6 7 8 9 10 12 14 15 16 17 16 16 16 16 16 16 14 14 14 15 15 16 17 19 24 25 25 23
2 4 3 5 8 9 8 9 8 8 7 5 4 4 5 6 7 8 10 11 13 14 15 16 17 17 17 16 15 16 16 16 14 14 15 15 15 16 17 18 20 23 23 24
5 6 5 6 7 8 8 8 7 5 4 4 3 4 5 7 8 10 12 13 13 15 16 16 17 17 17 15 15 16 16 16 15 14 14 15 15 15 15 17 17 16 18 22
7 5 6 8 10 9 8 7 6 4 3 3 4 5 6 8 10 12 13 13 14 15 16 16 17 17 16 15 15 16 15 13 13 14 14 15 15 15 15 17 16 16 16 16
7 7 10 11 11 9 8 6 5 4 4 4 5 7 8 10 11 13 14 13 14 16 16 16 17 17 16 15 15 14 13 17 17 15 14 14 14 15 15 15 16 15 15 15
11 10 9 10 10 8 6 5 4 4 4 6 7 8 10 11 13 14 14 14 14 15 16 16 16 15 15 15 15 13 13 15 18 16 14 14 14 15 15 15 15 15 15 16
8 9 10 10 9 7 5 4 3 4 6 7 8 9 11 12 14 15 15 15 15 16 16 15 14 15 15 15 14 13 13 13 13 14 14 14 15 15 14 15 15 16 15 15
8 8 8 7 6 4 3 3 4 5 6 7 9 11 12 13 14 14 14 15 16 17 14 13 17 17 16 16 16 13 14 15 15 14 14 17 16 14 14 14 15 15 15 14
8 7 6 5 3 2 2 4 5 6 7 8 10 11 13 13 13 14 14 14 13 13 14 16 17 15 15 15 17 13 14 15 15 15 14 14 14 15 14 14 15 15 14 13
7 6 4 3 1 2 4 5 6 8 9 9 10 12 13 14 13 13 13 14 14 13 15 18 14 13 13 15 18 14 14 14 14 14 14 14 14 15 15 14 14 14 14 13
4 3 2 2 3 5 5 6 7 9 10 10 11 11 12 13 14 13 13 12 14 15 14 13 13 15 18 21 15 14 14 14 14 13 14 14 14 14 14 15 14 14 13 13
2 2 2 4 5 6 7 8 8 8 10 11 12 12 13 13 12 12 14 12 12 17 15 14 17 22 25 18 14 14 14 14 14 14 14 14 14 14 14 15 14 13 13 13
3 3 4 4 5 6 9 9 8 8 10 11 11 12 12 12 12 11 12 16 18 20 15 17 22 24 23 14 13 13 13 14 14 14 14 14 13 13 13 14 14 13 13 15
4 4 5 5 6 7 8 9 9 10 11 10 12 12 11 10 12 13 14 15 18 19 15 17 21 22 16 13 13 13 13 13 14 14 14 14 13 14 14 13 13 13 13 13
4 5 6 6 7 7 7 8 8 9 10 11 11 11 11 10 12 13 13 14 17 19 16 13 14 15 13 13 13 14 14 14 15 14 14 14 15 14 13 13 16 13 13 13
5 6 6 6 7 7 7 8 9 10 10 11 13 13 12 12 12 13 15 14 14 14 13 13 13 13 13 13 13 14 14 13 13 13 13 13 13 13 13 15 13 13 12 13
Wind_Direction
251 190 189 215 213 203 216 236 251 261 264 263 243 222 206 187 175 170 167 164 160 170 296 309 314 314 315 316 317 317 313 310 309 310 309 307 306 304 303 301 299 297 295 294
225 204 227 247 242 231 233 244 251 263 269 278 247 214 197 182 174 175 173 171 176 224 281 296 305 309 310 310 313 311 307 306 307 307 307 306 306 305 303 302 300 298 296 295
242 184 258 256 244 232 228 228 238 252 266 189 184 188 186 180 177 179 178 181 210 259 280 292 301 304 305 307 308 306 304 304 305 306 305 306 306 305 304 303 302 300 298 296
217 191 242 259 127 222 230 241 234 243 224 180 171 149 155 171 175 174 176 196 236 269 282 290 296 298 300 301 302 302 303 304 306 307 305 305 305 304 304 305 303 300 299 298
197 239 264 263 211 193 214 252 225 219 196 161 138 139 153 156 161 168 180 216 255 272 282 288 293 298 300 301 302 302 303 306 308 307 305 305 305 305 306 305 303 301 300 299
197 226 248 250 138 153 185 259 196 187 174 162 163 194 184 160 161 168 191 225 258 276 284 288 296 303 301 301 303 304 306 307 306 306 304 303 303 305 304 303 302 302 299 299
223 237 258 205 141 157 213 281 153 171 169 169 183 175 127 148 163 183 220 254 272 282 288 294 302 303 299 300 302 306 306 304 303 303 303 302 302 302 303 303 302 301 301 300
207 225 244 151 159 197 234 116 155 164 166 169 158 131 141 158 176 210 252 274 287 292 295 300 303 302 299 301 306 308 306 303 302 303 304 302 303 304 304 304 304 304 304 304
202 219 72 164 194 184 141 158 162 163 162 159 158 165 166 181 211 248 273 286 292 295 298 300 302 301 300 304 308 308 305 303 304 304 304 303 303 304 305 304 303 304 304 304
222 236 213 202 197 181 170 162 151 150 151 158 162 166 181 211 243 266 279 289 294 297 298 301 305 305 303 305 307 305 304 304 305 305 305 304 303 301 301 302 302 302 303 304
228 225 197 207 197 174 153 140 135 135 144 154 158 174 203 237 260 274 284 290 293 294 297 301 306 305 305 307 308 305 304 304 305 305 303 304 303 300 299 295 293 299 301 302
227 200 192 190 176 166 156 154 152 146 147 155 173 194 227 255 271 280 287 293 294 295 299 302 305 304 305 307 306 304 303 304 305 304 303 303 303 302 295 292 296 298 297 298
191 144 152 143 152 158 158 155 156 159 163 173 193 219 247 268 280 286 289 292 295 298 299 301 303 302 304 307 305 301 299 301 302 302 302 303 303 304 306 304 301 301 301 303
155 138 142 156 159 154 149 148 148 153 168 191 220 247 265 277 284 287 291 295 298 298 298 299 300 300 304 307 304 299 298 297 298 299 300 300 300 301 302 305 308 308 307 307
174 175 154 142 140 140 140 145 153 170 195 230 250 264 274 282 288 292 296 299 298 296 296 299 300 301 306 307 302 299 297 297 298 299 298 298 299 299 300 300 302 305 307 309
147 134 137 143 148 150 153 161 178 203 231 258 273 280 286 289 290 292 294 297 297 297 300 301 299 301 306 305 301 298 296 295 297 298 298 298 299 300 300 301 302 304 305 309
147 151 156 159 161 164 173 185 204 230 258 272 284 293 295 294 293 294 298 300 297 294 295 295 296 301 302 300 299 298 298 298 298 297 296 297 298 298 299 300 301 303 303 305
165 160 163 164 166 174 188 206 231 255 270 282 291 292 291 293 295 298 301 302 300 296 294 296 299 303 300 299 300 299 297 296 297 297 297 297 298 298 299 299 300 301 302 304
140 141 146 152 162 174 197 232 258 272 280 285 288 289 290 290 291 294 298 299 298 298 299 303 304 303 300 300 301 298 296 295 296 297 298 299 300 298 298 298 299 300 301 302
129 132 134 137 144 181 235 263 276 281 284 287 287 288 290 292 295 297 297 293 288 289 296 300 302 300 300 301 302 297 295 295 297 299 299 299 299 299 299 298 299 299 299 299
131 133 137 152 209 254 265 275 280 283 288 287 284 285 289 293 295 295 294 295 295 298 301 302 301 300 302 303 302 299 298 298 299 299 299 299 299 298 298 299 299 299 298 298
139 149 174 227 263 276 281 280 278 280 284 285 285 286 289 293 295 293 285 285 294 301 304 301 299 300 305 306 301 299 298 298 298 297 297 298 297 297 298 299 299 299 298 298
169 203 240 258 270 282 287 283 279 279 281 284 287 289 291 292 294 294 295 296 300 302 303 298 299 303 306 307 301 299 299 298 298 297 297 297 296 297 297 298 298 297 298 298
221 245 260 272 278 279 283 287 286 283 282 283 281 280 284 290 291 287 288 296 300 301 299 298 301 304 308 305 300 298 297 297 297 297 297 297 297 296 296 297 297 297 297 297
249 261 266 270 274 276 281 289 291 289 288 287 288 288 284 282 287 295 296 297 300 301 300 300 303 305 305 298 297 297 296 295 295 297 298 299 298 297 296 296 296 297 297 296
259 265 268 267 269 277 282 285 287 290 293 294 295 296 294 292 291 293 294 297 298 299 300 299 301 302 300 298 297 297 297 298 298 297 296 297 296 296 296 296 297 296 295 295
266 268 272 277 275 272 275 279 283 288 290 292 296 298 297 296 295 296 297 297 298 298 299 299 299 299 298 297 298 298 298 297 297 296 297 297 296 295 296 296 295 295 294 294
Height
1500 1504 1505 1504 1505 1511 1509 1501 1501 1493 1492 1492 1497 1501 1505 1508 1511 1513 1516 1517 1518 1518 1518 1518 1516 1515 1513 1510 1508 1505 1501 1497 1493 1489 1484 1479 1473 1468 1462 1456 1450 1444 1438 1432
1504 1507 1507 1507 1502 1502 1502 1499 1495 1492 1490 1491 1496 1500 1502 1505 1508 1511 1513 1514 1515 1515 1515 1514 1513 1511 1509 1506 1503 1500 1496 1492 1487 1482 1477 1471 1465 1459 1453 1447 1441 1435 1429 1422
1498 1508 1506 1499 1490 1491 1493 1491 1491 1490 1487 1492 1496 1498 1500 1503 1506 1508 1510 1511 1512 1512 1512 1511 1509 1507 1504 1501 1498 1494 1490 1485 1480 1475 1469 1464 1457 1451 1445 1439 1432 1426 1420 1413
1499 1506 1506 1481 1486 1486 1486 1485 1487 1488 1490 1493 1495 1498 1500 1502 1504 1506 1508 1509 1509 1509 1508 1507 1505 1502 1500 1496 1493 1488 1484 1479 1474 1468 1462 1456 1449 1443 1437 1431 1424 1417 1411 1404
1500 1497 1486 1481 1484 1486 1486 1482 1483 1485 1489 1493 1496 1498 1500 1501 1502 1504 1505 1506 1506 1505 1504 1503 1500 1498 1494 1491 1487 1482 1478 1472 1467 1461 1454 1448 1441 1435 1429 1422 1415 1408 1402 1395
1499 1498 1490 1476 1483 1484 1486 1481 1481 1483 1487 1491 1494 1495 1496 1499 1500 1502 1502 1503 1502 1502 1500 1498 1496 1492 1489 1485 1481 1476 1471 1465 1460 1454 1447 1440 1434 1427 1421 1414 1406 1399 1393 1387
1490 1489 1476 1476 1482 1484 1485 1475 1480 1482 1485 1489 1491 1492 1495 1496 1498 1499 1500 1500 1499 1498 1496 1493 1490 1487 1483 1479 1474 1469 1463 1458 1452 1446 1440 1433 1426 1419 1413 1405 1398 1391 1385 1379
1483 1485 1479 1477 1480 1479 1475 1478 1479 1482 1484 1487 1490 1491 1493 1494 1496 1496 1497 1496 1495 1493 1491 1488 1485 1481 1476 1472 1467 1462 1456 1450 1444 1438 1432 1425 1418 1411 1405 1398 1390 1383 1377 1371
1471 1470 1471 1473 1474 1474 1475 1477 1479 1481 1483 1486 1488 1489 1491 1492 1493 1493 1493 1492 1490 1488 1485 1483 1479 1475 1470 1465 1460 1454 1448 1442 1436 1430 1424 1418 1411 1404 1397 1391 1384 1377 1371 1364
1470 1468 1470 1471 1472 1473 1474 1476 1477 1480 1482 1484 1486 1487 1489 1490 1490 1490 1489 1487 1485 1483 1479 1476 1473 1468 1463 1458 1452 1446 1440 1434 1428 1422 1415 1410 1403 1397 1390 1384 1378 1371 1365 1358
1465 1467 1468 1468 1469 1470 1472 1474 1477 1479 1481 1482 1484 1485 1486 1487 1487 1486 1484 1482 1480 1477 1473 1469 1465 1461 1456 1451 1445 1439 1432 1426 1420 1414 1407 1401 1395 1390 1384 1377 1373 1366 1359 1353
1457 1459 1462 1463 1465 1468 1470 1472 1475 1477 1479 1481 1482 1483 1483 1483 1483 1481 1479 1477 1474 1470 1467 1462 1458 1453 1449 1444 1438 1431 1425 1419 1413 1406 1400 1393 1386 1380 1375 1370 1364 1359 1353 1347
1456 1457 1459 1460 1463 1466 1469 1471 1473 1475 1477 1479 1480 1480 1480 1479 1478 1476 1474 1471 1468 1464 1459 1455 1450 1445 1441 1436 1430 1424 1418 1412 1405 1399 1393 1386 1380 1372 1365 1359 1356 1350 1345 1339
1453 1455 1457 1459 1461 1464 1467 1470 1472 1474 1475 1476 1477 1477 1476 1474 1473 1470 1468 1465 1461 1456 1452 1447 1442 1438 1433 1428 1422 1416 1410 1404 1398 1392 1386 1380 1373 1367 1360 1353 1346 1340 1336 1331
1451 1453 1454 1457 1460 1463 1466 1468 1470 1471 1473 1473 1473 1473 1471 1469 1467 1464 1461 1458 1453 1449 1444 1440 1435 1430 1425 1420 1414 1408 1403 1397 1391 1385 1379 1373 1367 1361 1354 1348 1341 1335 1328 1323
1449 1451 1453 1456 1459 1461 1464 1466 1468 1469 1470 1470 1469 1468 1466 1464 1461 1457 1454 1450 1446 1441 1437 1432 1427 1422 1417 1412 1406 1400 1395 1389 1384 1378 1372 1366 1360 1354 1348 1342 1336 1329 1324 1318
1447 1450 1452 1455 1458 1460 1462 1464 1465 1466 1466 1465 1464 1462 1460 1457 1454 1450 1447 1443 1438 1433 1429 1424 1419 1414 1409 1404 1399 1393 1387 1381 1376 1370 1365 1359 1353 1347 1341 1336 1330 1324 1318 1313
1446 1448 1451 1454 1456 1458 1460 1462 1462 1462 1462 1460 1459 1456 1454 1450 1446 1443 1439 1434 1430 1425 1421 1417 1412 1406 1401 1396 1391 1385 1379 1373 1368 1363 1357 1352 1346 1341 1335 1329 1323 1318 1311 1307
1445 1448 1451 1453 1455 1457 1458 1458 1458 1458 1457 1455 1453 1450 1447 1443 1439 1435 1431 1426 1421 1416 1412 1408 1403 1398 1393 1388 1383 1377 1372 1366 1361 1356 1350 1344 1339 1333 1328 1322 1317 1311 1306 1301
1445 1448 1450 1452 1454 1455 1455 1455 1454 1453 1451 1449 1446 1443 1439 1436 1432 1428 1423 1418 1414 1410 1404 1400 1395 1390 1385 1380 1375 1370 1364 1359 1354 1348 1343 1337 1332 1326 1321 1316 1310 1305 1300 1295
1445 1447 1449 1450 1451 1452 1451 1450 1449 1447 1445 1443 1439 1436 1432 1428 1425 1420 1415 1410 1406 1402 1397 1392 1387 1382 1377 1372 1367 1362 1357 1351 1346 1340 1335 1330 1324 1319 1314 1309 1304 1299 1294 1289
1444 1446 1447 1448 1448 1448 1447 1445 1444 1441 1439 1436 1433 1429 1425 1421 1416 1412 1407 1403 1398 1394 1389 1383 1379 1374 1369 1364 1359 1354 1349 1343 1338 1333 1327 1322 1317 1312 1306 1302 1297 1292 1287 1283
1443 1444 1444 1444 1444 1443 1442 1440 1438 1435 1432 1429 1426 1422 1418 1413 1409 1404 1398 1394 1390 1385 1380 1375 1371 1366 1361 1356 1350 1345 1340 1335 1330 1325 1320 1315 1310 1305 1300 1295 1290 1285 1281 1276
1441 1441 1441 1440 1439 1437 1435 1433 1431 1428 1425 1422 1418 1415 1410 1405 1400 1396 1391 1386 1381 1377 1371 1366 1362 1357 1352 1347 1342 1337 1332 1327 1322 1317 1312 1307 1303 1298 1293 1288 1283 1279 1274 1270
1437 1437 1436 1435 1433 1431 1429 1426 1423 1420 1417 1413 1410 1406 1402 1398 1393 1387 1382 1377 1372 1368 1362 1357 1353 1348 1343 1338 1333 1329 1324 1319 1315 1310 1305 1300 1295 1290 1285 1281 1277 1272 1268 1264
1433 1432 1431 1429 1428 1425 1422 1419 1416 1412 1409 1404 1400 1397 1393 1389 1384 1379 1374 1369 1364 1359 1354 1349 1344 1339 1334 1330 1325 1321 1316 1311 1306 1301 1297 1292 1287 1283 1278 1274 1270 1266 1261 1257
1428 1426 1425 1423 1421 1419 1416 1412 1409 1405 1401 1397 1392 1388 1384 1380 1375 1370 1365 1360 1355 1350 1345 1340 1336 1331 1326 1322 1317 1313 1308 1303 1299 1294 1289 1284 1280 1276 1271 1267 1263 1259 1255 1251